Wind_Speed
79 82 81 84 85 83 80 79 76 74 71 68 65 65 65 64 62 61 60 62 64 63 65 68 75 79 81 80 81 80 76 73 75 80 84 90 95 101 110 115 114 115 112 110 107
74 74 70 70 67 65 64 64 63 63 61 60 59 60 60 61 61 62 62 61 62 64 60 62 67 72 77 79 80 80 76 74 78 80 84 87 93 97 99 105 114 116 119 116 112
49 50 49 52 51 52 54 54 56 58 60 61 60 60 61 62 63 62 62 60 60 62 64 63 64 68 73 76 78 80 74 80 78 79 83 87 91 95 98 100 100 108 114 118 119
42 47 49 50 49 51 54 55 57 59 61 62 62 61 62 63 63 64 65 65 64 62 62 62 63 65 68 73 78 78 80 81 78 79 81 85 90 93 96 99 100 100 104 113 120
54 56 57 59 60 61 61 61 62 65 67 70 70 70 69 68 68 69 69 71 71 71 69 69 66 66 68 69 75 77 80 82 81 81 81 82 86 93 95 96 100 100 100 103 109
61 62 67 70 69 69 70 70 71 73 74 75 75 76 76 76 76 75 76 77 78 79 78 76 73 73 69 69 73 78 80 82 84 85 83 84 84 86 91 95 98 99 100 101 102
71 74 74 75 76 77 77 77 78 79 80 80 82 81 81 81 81 80 80 78 79 82 84 83 81 76 73 74 71 76 80 84 83 86 87 89 86 84 85 91 95 98 99 100 100
75 78 81 82 84 83 85 88 88 86 87 85 85 86 85 82 83 83 85 84 83 84 84 85 86 82 77 76 75 76 81 85 87 89 91 93 85 92 90 90 92 96 99 100 101
81 82 86 90 91 93 94 94 93 92 90 90 91 91 88 87 88 88 87 89 88 87 88 87 87 84 83 81 79 80 81 87 92 91 93 93 91 89 91 93 93 92 95 98 99
85 87 90 92 96 96 95 94 92 88 86 87 88 89 89 89 89 91 91 92 91 91 89 88 85 84 84 85 81 83 81 85 91 93 94 95 94 93 96 96 96 95 95 96 99
89 91 94 98 102 100 97 95 92 90 89 83 79 81 84 87 86 87 88 89 90 89 89 86 86 86 87 83 81 81 82 86 92 94 96 96 97 95 97 98 98 98 98 98 97
92 96 100 103 103 100 96 92 89 88 85 83 75 72 73 76 80 80 78 79 80 83 84 83 83 85 85 81 78 78 80 84 91 96 98 98 98 97 98 100 102 101 101 101 102
98 101 105 107 104 97 91 83 79 77 74 70 73 71 69 69 71 72 72 72 72 73 75 75 76 78 79 78 75 74 77 83 90 95 98 100 99 98 98 99 101 102 104 105 105
105 108 108 103 96 90 83 76 71 67 65 61 64 67 69 69 68 69 69 69 68 68 68 68 71 71 72 74 74 72 75 84 91 91 95 101 99 99 99 100 102 103 104 106 108
109 112 113 104 98 88 75 69 65 65 65 58 60 60 62 63 64 65 66 66 66 65 65 64 66 67 68 69 71 69 74 82 88 91 94 93 96 96 100 101 102 104 106 107 109
119 119 115 105 91 77 72 71 69 65 62 60 57 56 57 58 59 60 62 62 62 62 61 61 61 62 64 65 68 66 73 79 84 88 86 87 92 93 96 99 103 104 106 107 109
122 121 111 96 80 75 72 67 62 62 58 57 55 52 51 51 52 53 55 57 58 58 58 57 58 58 59 61 62 63 68 71 77 81 76 84 88 86 91 95 99 102 103 103 105
128 121 104 86 78 75 69 65 61 57 54 51 50 48 47 47 47 47 48 50 51 52 53 54 54 55 56 56 59 59 63 66 68 70 73 80 79 79 86 91 94 98 100 101 103
133 120 99 84 76 70 65 61 57 53 50 46 44 43 43 43 43 43 44 44 45 46 48 50 50 51 52 52 53 55 58 62 65 66 69 71 71 76 82 87 90 94 97 99 102
132 117 95 82 74 69 63 57 51 46 43 41 39 38 38 39 40 40 40 40 39 41 43 45 46 47 49 49 50 52 55 57 60 62 65 65 69 73 79 84 87 90 93 96 99
132 113 92 80 74 69 61 53 48 45 42 38 36 35 34 34 35 35 35 36 36 37 38 39 41 42 44 46 47 49 52 53 55 56 57 60 64 71 75 78 81 83 86 91 94
132 109 91 79 73 65 56 51 47 43 40 37 34 32 30 31 31 32 32 32 31 32 34 35 38 39 40 42 44 45 48 50 51 51 54 56 61 66 70 73 76 78 81 85 89
131 118 96 86 78 68 59 54 49 45 41 37 34 31 29 28 27 26 26 27 28 28 29 30 32 35 36 38 40 42 44 47 48 50 51 55 59 64 67 71 74 77 79 83 86
135 124 96 85 77 69 62 58 52 48 43 38 35 31 28 26 24 24 22 22 22 23 25 28 30 31 32 33 35 38 41 43 45 47 49 52 58 63 66 69 73 76 78 82 85
143 128 100 90 83 74 63 60 56 51 46 40 36 33 29 26 23 22 20 20 19 19 20 22 24 28 30 30 31 34 37 40 42 44 47 50 56 61 65 68 72 75 78 81 84
144 138 108 97 89 79 70 65 58 52 46 41 37 33 30 27 24 21 20 18 18 17 17 19 20 23 26 29 28 30 33 35 38 41 44 48 52 58 63 67 70 74 77 80 83
143 144 123 105 94 84 75 68 62 56 48 42 37 34 30 27 25 23 21 18 16 15 14 15 17 19 23 26 27 27 28 31 36 38 42 46 50 56 61 65 68 72 75 78 81
Wind_Direction
288 289 290 290 291 290 290 290 289 288 286 284 283 282 281 277 274 271 267 264 261 259 257 257 257 257 257 256 256 254 254 247 241 238 238 238 240 240 239 236 234 234 233 231 230
293 295 296 295 295 294 294 293 289 286 283 281 281 281 280 279 278 276 271 267 262 260 259 255 253 254 255 255 256 256 252 250 244 238 236 234 237 239 239 239 235 236 234 233 232
307 304 305 301 298 297 294 293 290 287 283 281 280 278 277 276 275 274 274 272 269 266 264 257 254 249 249 250 251 253 253 248 246 242 238 234 234 237 238 236 235 234 235 234 233
328 329 321 310 308 303 298 296 294 292 289 286 283 282 280 277 277 276 273 272 272 268 264 262 257 254 249 248 248 248 247 247 245 243 240 236 234 235 236 236 235 233 234 235 235
340 337 332 324 317 311 305 299 297 296 293 290 286 284 282 282 282 280 279 279 276 273 271 268 262 257 251 248 247 247 245 244 244 243 240 237 235 234 234 235 234 233 232 232 234
344 337 334 329 322 316 308 301 296 292 289 286 284 282 281 279 277 277 276 276 275 275 275 272 268 265 259 253 248 246 245 241 241 241 240 238 236 234 235 234 234 233 231 231 231
341 337 334 328 323 317 309 302 295 290 286 284 282 279 277 277 275 274 273 272 271 270 272 272 271 266 264 257 251 246 244 242 239 238 238 238 237 236 234 234 234 233 230 229 228
337 337 333 328 322 318 312 308 299 291 287 284 280 276 274 273 273 272 271 270 270 269 269 268 268 268 265 262 253 245 242 242 240 237 235 237 234 234 234 234 234 235 233 229 227
337 334 329 326 322 318 312 305 298 292 287 284 281 278 275 273 272 271 269 269 268 268 268 267 266 265 265 262 255 248 244 239 240 240 237 237 232 234 233 234 235 235 234 232 229
335 332 328 326 322 316 309 304 298 294 290 285 283 279 276 273 271 270 269 268 267 268 268 267 266 265 264 261 257 249 246 243 239 238 238 235 232 231 232 233 234 235 234 233 231
334 331 329 325 321 318 312 306 300 297 295 291 286 281 278 275 273 271 270 269 268 267 267 267 265 265 263 261 259 252 244 243 241 238 236 236 233 229 229 230 231 233 234 235 234
332 332 329 327 322 316 310 304 300 297 295 294 291 287 282 278 277 275 272 270 268 267 267 266 265 264 263 261 258 253 246 240 240 239 236 235 234 231 229 230 229 231 234 234 233
335 333 328 324 320 315 309 303 298 295 292 289 290 289 286 282 280 278 276 273 272 269 267 266 264 265 262 260 256 250 244 240 240 239 238 235 234 232 230 229 231 230 231 233 234
338 333 329 326 321 316 314 310 305 300 295 292 286 284 284 283 281 278 277 275 273 270 267 266 264 262 260 258 254 249 244 240 241 240 239 236 234 232 230 228 228 230 230 232 233
341 338 337 331 326 322 319 315 310 305 302 296 290 287 283 281 280 278 276 275 273 271 268 266 263 261 259 258 255 249 245 241 240 240 240 237 236 234 232 231 229 230 230 230 232
343 342 340 332 327 324 320 316 313 308 304 300 294 288 284 281 278 276 275 273 272 271 269 266 263 261 259 256 254 250 246 243 241 241 242 239 237 234 234 232 231 231 231 231 231
344 344 339 333 329 326 322 319 315 310 307 302 298 293 287 282 278 275 272 270 270 269 268 266 263 261 257 255 253 249 246 243 242 241 241 238 237 234 235 234 233 233 232 233 234
349 346 338 336 332 329 326 322 319 314 309 305 299 295 290 286 282 277 273 270 268 267 266 265 263 260 257 255 252 248 245 244 242 240 237 235 236 234 234 234 233 233 232 233 234
353 346 342 339 337 334 330 327 323 319 314 309 304 297 291 286 282 279 276 273 270 268 265 264 262 260 257 254 252 248 246 243 241 238 237 236 235 233 233 234 233 232 232 232 233
353 348 346 343 342 338 336 333 329 326 321 316 311 305 298 291 286 282 279 276 273 269 266 264 262 260 259 255 252 249 246 244 241 239 238 235 234 233 233 233 233 232 232 232 232
354 352 350 350 347 344 341 340 337 333 328 321 315 308 302 296 291 288 284 280 275 271 269 265 263 260 257 256 253 249 247 244 242 238 236 233 232 232 232 232 232 232 232 231 231
356 357 354 353 351 349 347 346 345 341 336 330 325 318 311 304 298 293 288 285 281 277 272 267 265 261 257 255 253 250 248 246 242 239 236 233 231 232 232 231 231 230 229 230 230
0 0 358 359 358 354 353 353 353 350 345 340 334 328 321 316 311 305 298 289 282 277 274 270 266 263 260 255 252 250 247 245 243 239 235 232 230 231 230 230 230 230 229 228 229
4 3 2 2 1 359 359 358 358 356 352 349 345 340 334 327 321 313 306 298 289 281 274 269 266 264 262 258 253 250 248 244 242 238 235 231 230 230 229 229 229 228 228 227 227
4 5 4 5 6 4 2 3 2 359 356 354 353 349 346 342 335 326 317 306 297 290 281 273 267 263 260 258 255 250 246 242 240 237 234 230 229 229 229 228 228 228 228 227 228
5 6 7 7 7 6 6 7 5 3 359 357 355 353 352 350 345 340 333 325 311 298 286 277 271 265 259 254 252 252 247 242 239 236 233 230 227 228 229 230 230 230 228 228 228
6 7 8 7 8 8 7 8 7 6 4 2 0 360 357 356 354 352 347 341 331 320 305 289 280 273 264 257 250 249 248 244 240 236 233 232 229 229 229 230 230 230 231 231 231
Height
10676 10667 10655 10648 10639 10629 10619 10611 10602 10594 10587 10582 10577 10571 10566 10562 10558 10555 10552 10551 10548 10544 10543 10543 10542 10543 10544 10547 10548 10551 10563 10577 10578 10580 10585 10588 10588 10593 10600 10617 10632 10645 10658 10667 10681
10656 10646 10635 10627 10618 10609 10600 10593 10585 10577 10570 10565 10559 10553 10548 10544 10540 10536 10532 10531 10529 10526 10524 10524 10523 10524 10525 10527 10529 10531 10542 10551 10548 10555 10558 10564 10567 10569 10577 10590 10610 10621 10633 10645 10658
10640 10631 10623 10614 10605 10595 10586 10578 10569 10561 10553 10547 10541 10535 10530 10525 10521 10518 10513 10510 10509 10507 10507 10505 10504 10503 10505 10506 10509 10512 10526 10516 10527 10532 10537 10543 10547 10549 10556 10568 10584 10598 10610 10621 10633
10628 10619 10611 10602 10591 10582 10573 10563 10554 10545 10535 10527 10521 10516 10511 10505 10500 10498 10493 10489 10487 10486 10485 10485 10485 10484 10485 10486 10488 10492 10496 10497 10505 10509 10514 10521 10526 10532 10537 10546 10561 10574 10587 10598 10609
10618 10608 10598 10587 10577 10566 10555 10544 10534 10525 10515 10507 10501 10494 10488 10482 10478 10475 10472 10468 10465 10464 10463 10462 10463 10462 10463 10465 10466 10471 10475 10476 10481 10486 10493 10499 10505 10509 10519 10528 10538 10552 10566 10575 10587
10607 10596 10582 10570 10557 10545 10533 10522 10511 10499 10490 10481 10474 10468 10463 10458 10455 10450 10448 10445 10443 10441 10440 10440 10440 10439 10441 10443 10444 10450 10451 10455 10458 10463 10471 10476 10481 10491 10501 10508 10515 10525 10540 10554 10564
10591 10577 10564 10552 10538 10523 10509 10495 10482 10471 10460 10452 10445 10438 10432 10429 10426 10423 10421 10418 10417 10416 10416 10416 10415 10415 10419 10418 10423 10425 10428 10431 10436 10439 10446 10450 10463 10474 10481 10484 10491 10500 10515 10529 10542
10575 10561 10546 10532 10517 10502 10486 10469 10454 10441 10429 10421 10414 10408 10403 10401 10397 10395 10392 10391 10391 10390 10389 10388 10389 10390 10392 10394 10398 10397 10402 10407 10409 10414 10418 10423 10449 10439 10455 10461 10469 10477 10489 10503 10517
10559 10544 10527 10512 10495 10478 10461 10441 10423 10410 10400 10391 10385 10378 10375 10372 10369 10366 10364 10362 10361 10362 10361 10362 10363 10364 10364 10365 10369 10374 10377 10380 10384 10390 10396 10406 10417 10431 10436 10442 10450 10460 10469 10482 10496
10545 10528 10510 10492 10472 10452 10430 10411 10392 10381 10369 10362 10355 10348 10345 10342 10338 10335 10335 10333 10332 10332 10332 10333 10336 10338 10338 10336 10344 10346 10355 10358 10360 10366 10369 10381 10391 10405 10412 10420 10429 10438 10448 10459 10473
10527 10509 10489 10468 10446 10423 10399 10377 10361 10349 10336 10330 10325 10319 10313 10310 10309 10307 10305 10305 10304 10303 10304 10306 10308 10310 10306 10314 10318 10322 10328 10332 10335 10340 10345 10356 10366 10378 10386 10397 10408 10417 10426 10438 10450
10511 10490 10467 10444 10418 10392 10368 10348 10332 10318 10309 10298 10293 10288 10284 10280 10278 10276 10276 10275 10275 10275 10275 10278 10281 10278 10281 10286 10291 10296 10303 10307 10306 10312 10320 10328 10340 10354 10366 10374 10383 10395 10405 10414 10424
10491 10467 10443 10416 10388 10361 10337 10318 10304 10292 10283 10278 10267 10261 10257 10253 10249 10247 10246 10245 10246 10248 10249 10250 10253 10253 10254 10258 10264 10270 10278 10277 10281 10288 10295 10304 10316 10333 10344 10353 10362 10373 10382 10390 10402
10470 10445 10416 10385 10354 10328 10307 10288 10275 10264 10257 10257 10248 10239 10233 10228 10225 10222 10220 10220 10221 10221 10223 10226 10226 10227 10229 10233 10236 10246 10249 10250 10255 10264 10269 10275 10292 10306 10318 10328 10338 10349 10359 10368 10376
10452 10419 10385 10349 10321 10299 10281 10265 10252 10240 10230 10232 10223 10217 10211 10207 10203 10200 10197 10196 10197 10198 10199 10202 10203 10203 10206 10209 10209 10222 10224 10226 10230 10236 10239 10256 10267 10285 10293 10306 10316 10323 10333 10342 10352
10421 10386 10352 10322 10297 10277 10260 10245 10232 10220 10210 10204 10199 10195 10189 10185 10182 10180 10176 10175 10175 10176 10177 10178 10180 10182 10183 10186 10188 10198 10197 10200 10205 10210 10221 10237 10243 10257 10267 10280 10287 10298 10307 10317 10326
10400 10362 10329 10299 10276 10258 10241 10226 10214 10197 10191 10182 10175 10171 10169 10165 10162 10159 10158 10155 10155 10155 10156 10157 10158 10160 10163 10164 10167 10174 10173 10178 10182 10190 10212 10210 10218 10241 10247 10256 10266 10275 10286 10297 10306
10380 10341 10309 10280 10257 10237 10220 10206 10192 10182 10172 10164 10157 10152 10148 10145 10142 10141 10139 10138 10138 10137 10137 10137 10139 10141 10142 10145 10147 10153 10154 10158 10164 10174 10183 10185 10203 10220 10223 10230 10241 10252 10263 10273 10283
10355 10322 10290 10263 10240 10221 10206 10190 10177 10165 10155 10148 10141 10136 10131 10128 10125 10123 10122 10121 10121 10120 10120 10119 10120 10121 10124 10127 10130 10133 10136 10139 10145 10153 10160 10172 10187 10192 10199 10205 10215 10226 10236 10247 10256
10348 10308 10275 10249 10228 10208 10191 10177 10164 10153 10144 10136 10128 10122 10117 10113 10110 10108 10107 10106 10106 10104 10104 10104 10104 10105 10106 10109 10113 10115 10118 10123 10129 10136 10145 10157 10163 10172 10175 10182 10191 10202 10212 10223 10232
10337 10295 10263 10237 10216 10197 10181 10167 10154 10143 10133 10125 10118 10111 10106 10101 10098 10095 10093 10092 10092 10091 10090 10090 10090 10091 10091 10093 10096 10099 10102 10107 10112 10120 10128 10137 10143 10146 10152 10162 10171 10182 10191 10200 10208
10331 10288 10256 10232 10209 10190 10173 10158 10147 10135 10125 10115 10108 10101 10095 10091 10087 10083 10081 10079 10078 10078 10077 10077 10076 10076 10078 10079 10081 10084 10086 10090 10096 10105 10111 10118 10123 10128 10135 10143 10150 10159 10168 10178 10187
10315 10275 10246 10218 10197 10181 10165 10151 10139 10127 10117 10108 10100 10093 10087 10082 10078 10075 10071 10069 10067 10066 10066 10065 10064 10064 10065 10067 10068 10070 10073 10076 10081 10088 10095 10100 10107 10110 10117 10123 10131 10140 10149 10158 10167
10312 10277 10248 10223 10199 10179 10161 10146 10133 10122 10112 10103 10095 10087 10081 10075 10070 10066 10063 10060 10058 10056 10055 10054 10054 10054 10054 10055 10056 10058 10060 10064 10068 10074 10080 10086 10090 10094 10101 10107 10113 10121 10130 10138 10147
10306 10274 10241 10216 10194 10177 10160 10143 10130 10118 10108 10098 10090 10083 10076 10070 10065 10060 10056 10053 10051 10048 10047 10045 10044 10044 10044 10045 10046 10047 10049 10052 10057 10061 10067 10072 10076 10081 10086 10091 10096 10104 10112 10120 10129
10303 10266 10237 10212 10191 10172 10154 10140 10128 10117 10106 10096 10087 10080 10073 10067 10061 10056 10052 10048 10044 10042 10040 10038 10037 10036 10035 10035 10037 10038 10039 10043 10046 10050 10054 10057 10063 10066 10071 10076 10082 10088 10095 10102 10110
10297 10263 10234 10209 10190 10169 10156 10141 10128 10116 10105 10096 10087 10079 10071 10065 10059 10053 10048 10044 10041 10037 10034 10032 10030 10029 10028 10027 10028 10029 10031 10032 10034 10037 10041 10044 10049 10053 10056 10061 10067 10073 10079 10086 10094